STARLINK-30896, 58353

Orbit data source: Space-Track

STARLINK-30896, 58353 is a payload satellite owned by SpaceX/Seattle (US) in LEO that was launched on Sat, 18 Nov 2023 UTC via an FALCON 9 launch vehicle from the Air Force Eastern Test Range (AFETR). Payload-class satellites include a variety of spacecraft equipped with specific instruments for various scientific and technological missions. These include communications satellites like Starlink; space stations such as the ISS; scientific satellites like the Hubble; Earth observation satellites from companies like Planet Labs, Umbra, and HawkEye 360; GPS; miniature CubeSats for education and research; and military/defense satellites.

Loading next visibility...
Identifier
58353, 2023-177C
Orbit
LEO
Country
Flag of USUS
Related business
Manufacturer
SpaceX/Seattle
Mission
Operational Commercial Communications
Bus & Motor
STARLINK V2M, Unknown motor
Mass
730 kg wet, ~700 kg dry
Launch date (UTC)
2023-11-18 (3 years ago)
Launch vehicle
FALCON 9
Launch site
Air Force Eastern Test Range (AFETR)
Object type
Payload
Rocket body
Debris
Shape & HBR
Box + 2 Pan, 17.7 m
Radar Cross Section
33.884 m², Large (>1 m²)

Expand to show TLE details & history
Last TLE update: 2 days ago

TLE from 2 days ago
0 STARLINK-30896
1 58353U 23177C   26171.47359275 -.00001268  00000-0 -36583-4 0  9991
2 58353  43.0037 348.3381 0001166 280.5616  79.5104 15.27575068145557
Epoch: 2026-06-20T11:21Z
TLE epoch observation values (Epoch: 2026-06-20T11:21:58.413Z)
Latitude
-0.00004°
Longitude
-90.84304°
Altitude
482.694 km
Speed
7.626 km/s
True Right ascension
23h 13m 21s
True Declination
0° 00' 00"
Sunlit
Object was in daylight at epoch
Visualization orbit readout
Latitude
Unknown
Longitude
Unknown
Altitude
Unknown
Speed
Unknown
Apparent Right ascension
Unknown
Apparent Declination
Unknown
Sunlit
N/A
Visualization observer readout
Local Sidereal Time
21:28:00
Azimuth
Unknown
Elevation
Unknown
Doppler factor
Unknown
Orbital elements
Apogee altitude
485.809 km
Perigee altitude
484.208 km
Semi-major axis
6,863.145 km
Eccentricity
0.00012
Inclination
43.0037°
RAAN
348.3381°
Arg. of periapsis
280.5616°
True anomaly
79.52354°
Mean anomaly
79.5104°
Eccentric anomaly
79.51697°
Mean motion
3.81732 °/min
Orbital period
94.31 mins
BSTAR
-0.000036583
Loading maneuver chart data...
Computing Atmospheric mass density...
Loading historical data...
Loading historical data...
Loading historical data...
Loading historical data...
Loading historical data...
Loading historical data...
Loading historical data...

Documentation

Showing up to 5 results
|